Regional Weather Roundup
Issued by NWS

Home | Current Version | Previous Version | Graphics & Text | Print | Product List | Glossary On
Versions: 1 2 3 4 5 6 7 8 9 10 11 12 13 14 15 16 17 18 19 20 21 22 23 24 25 26 27 28 29 30 31 32 33 34 35 36 37 38 39 40 41 42 43 44 45 46 47 48 49 50
000
ASUS43 KMPX 241510
RWRMN
WEATHER ROUNDUP FOR MINNESOTA
NATIONAL WEATHER SERVICE TWIN CITIES/CHANHASSEN MN
900 AM CST TUE JAN 24 2017


NOTE: "FAIR" INDICATES FEW OR NO CLOUDS BELOW 12,000 FEET WITH NO
SIGNIFICANT WEATHER AND/OR OBSTRUCTIONS TO VISIBILITY. N/A MEANS
CURRENT SKY AND/OR WEATHER CONDITIONS ARE NOT AVAILABLE.

MNZ060>063-068>070-241600-
   Twin Cities Metro

CITY           SKY/WX    TMP DP  RH WIND       PRES   REMARKS
TWIN CITIES    CLOUDY    32  25  75 NE5       29.91R WCI  27
ST PAUL        CLOUDY    32  27  81 NE3       29.92R
CRYSTAL        CLOUDY    31  23  72 CALM      29.90R
BLAINE         CLOUDY    34  28  80 N5        29.90R WCI  30
LAKEVILLE      CLOUDY    28  27  93 CALM      29.89F
EDEN PRAIRIE   CLOUDY    32  25  75 N6        29.89S HAZE    WCI  26
SOUTH ST PAUL  CLOUDY    32  28  83 N3        29.90S
LAKE ELMO      CLOUDY    32  28  86 CALM      29.91R
$$
MNZ001>005-007-008-013>017-022>024-027-028-241600-
   Northwest Minnesota

CITY           SKY/WX    TMP DP  RH WIND       PRES   REMARKS
BEMIDJI        CLOUDY    27  24  87 SW5       29.86R WCI  22
HALLOCK        CLOUDY    27  23  86 SW6       29.85S WCI  20
ROSEAU         CLOUDY    25  21  86 SW8       29.84S WCI  16
WARROAD        CLOUDY    25  21  86 SW6       29.84F WCI  18
THIEF RVR FALL CLOUDY    24  20  84 SW8       29.87S WCI  15
CROOKSTON      CLOUDY    25  21  86 SW8       29.89S WCI  16
FOSSTON        CLOUDY    23  19  86 W7        29.88R WCI  15
DETROIT LAKES  CLOUDY    30  27  86 NW3       29.88R
MOORHEAD       CLOUDY    27  23  86 NW8       29.91R WCI  18
PARK RAPIDS    CLOUDY    28  21  75 W6        29.86R WCI  22
MAHNOMEN       CLOUDY    25  22  88 W7        29.87S WCI  18
$$
MNZ006-009>011-018-025>026-241600-
   North Central Minnesota

CITY           SKY/WX    TMP DP  RH WIND       PRES   REMARKS
BAUDETTE       CLOUDY    23  19  85 W9        29.85R WCI  13
FLAG ISLAND    CLOUDY    25  21  86 S8        29.83S WCI  16
INTL FALLS     CLOUDY    27  21  78 W7        29.86R WCI  19
WASKISH        CLOUDY    27  25  93 W9        29.86S WCI  17
BIG FORK       CLOUDY    28  23  80 W3        29.86S
LONGVILLE      CLOUDY    27  23  86 CALM      29.88R
GRAND RAPIDS   CLOUDY    28  24  85 NW6       29.89R WCI  22
CRANE LAKE     CLOUDY    28  27  93 CALM      29.88R
ORR            CLOUDY    27  21  80 CALM      29.84R
COOK           CLOUDY    28  27  93 W5        29.86S WCI  23
WALKER         CLOUDY    27  23  85 SW3       29.86S
$$
MNZ012-019>021-037-241600-
   Northeast Minnesota

CITY           SKY/WX    TMP DP  RH WIND       PRES   REMARKS
DULUTH         CLOUDY    31  25  78 NW6       29.85S WCI  25
ELY            CLOUDY    28  27  93 CALM      29.85S
HIBBING        CLOUDY    28  25  88 W3        29.85F
EVELETH        CLOUDY    30  25  81 W3        29.86F
DULUTH HARBOR  CLOUDY    34  27  75 CALM      29.90R
TWO HARBORS    CLOUDY    36  28  75 NW5       29.84S
SILVER BAY     CLOUDY    34  30  86 CALM      29.84R
GRAND MARAIS     N/A     37  31  78 CALM      29.85R
G MARAIS ARPRT CLOUDY    28  25  86 NW5       29.81S WCI  23
$$
MNZ029>031-032-039>041-046>048-054>057-064-241600-
   West Central Minnesota

CITY           SKY/WX    TMP DP  RH WIND       PRES   REMARKS
FERGUS FALLS   CLOUDY    28  25  86 CALM      29.91F
WHEATON        CLOUDY    30  27  86 CALM      29.90S
MORRIS         CLOUDY    30  28  93 CALM      29.87R
ALEXANDRIA     CLOUDY    30  26  85 CALM      29.87S
ELBOW LAKE     CLOUDY    29  27  90 CALM      29.88R FOG
WADENA         CLOUDY    28  25  86 CALM      29.87S
GLENWOOD       CLOUDY    30  27  86 CALM      29.87S
APPLETON       CLOUDY    32  27  80 E3        29.88S
ORTONVILLE     CLOUDY    30  27  86 CALM      29.87F
MADISON        CLOUDY    34  30  86 E6        29.88S WCI  29
WILLMAR        CLOUDY    30  27  86 CALM      29.90S
$$
MNZ033>034-036-042>043-049>051-058-059-241600-
   Central Minnesota

CITY           SKY/WX    TMP DP  RH WIND       PRES   REMARKS
ST CLOUD       CLOUDY    31  25  78 N3        29.89S
SAUK CENTRE    CLOUDY    29  26  86 CALM      29.88S
PAYNESVILLE    CLOUDY    30  30  99 CALM      29.89R
AITKIN         CLOUDY    32  25  74 CALM      29.87S
PINE RIVER     CLOUDY    27  23  86 CALM      29.91S
BRAINERD       CLOUDY    30  24  78 W3        29.88S
STAPLES        CLOUDY    28  25  86 CALM      29.87S
LONG PRAIRIE   CLOUDY    30  27  86 CALM      29.87F FOG
LITTLE FALLS   CLOUDY    32  25  74 CALM      29.89S
LITCHFIELD     CLOUDY    30  27  86 E5        29.89S WCI  25
BUFFALO        CLOUDY    31  25  80 CALM      29.91R
MAPLE LAKE     CLOUDY    32  28  86 NE3       29.90S
HUTCHINSON     CLOUDY    31  28  87 N3        29.90S
$$
MNZ037-044-045-052-053-241600-
   East Central Minnesota

CITY           SKY/WX    TMP DP  RH WIND       PRES   REMARKS
PRINCETON      CLOUDY    32  27  80 CALM      29.90S
MORA           CLOUDY    32  27  80 CALM      29.91S
CAMBRIDGE      CLOUDY    34  25  69 CALM      29.88S
RUSH CITY      CLOUDY    32  25  74 CALM      29.90R
MOOSE LAKE     CLOUDY    32  27  80 CALM      29.87R
HINCKLEY       CLOUDY    32  28  86 CALM      29.90R
CLOQUET        CLOUDY    30  25  80 W3        29.87R
MCGREGOR       CLOUDY    32  27  80 CALM      29.88S
$$
MNZ071>073-080-081-089-090-097-098-241600-
   Southwest Minnesota

CITY           SKY/WX    TMP DP  RH WIND       PRES   REMARKS
MONTEVIDEO     CLOUDY    30  28  93 E3          N/A
GRANITE FALLS  CLOUDY    32  29  87 NE8       29.88F WCI  25
CANBY          CLOUDY    32  29  90 CALM      29.86F
MARSHALL       CLOUDY    30  27  88 E8        29.85F WCI  22
REDWOOD FALLS  CLOUDY    31  25  78 E8        29.87S WCI  23
OLIVIA         CLOUDY    32  28  86 NE7       29.87F WCI  26
PIPESTONE      CLOUDY    30  30 100 E14       29.78F FOG     WCI  20
WINDOM         CLOUDY    30  28  93 E8        29.84S WCI  23
WORTHINGTON    CLOUDY    30  28  92 E15       29.80F WCI  19
JACKSON        CLOUDY    30  28  93 E9        29.83F WCI  22
TRACY          CLOUDY    31  28  91 E8        29.85F WCI  23
SLAYTON        CLOUDY    29  28  96 E10       29.82F WCI  20
$$
MNZ065>067-074>077-082>085-091>093-241600-
   South Central Minnesota

CITY           SKY/WX    TMP DP  RH WIND       PRES   REMARKS
MANKATO        CLOUDY    31  27  85 NE3       29.88S
NEW ULM        CLOUDY    30  27  86 CALM      29.88R
ST JAMES       CLOUDY    30  28  93 NE7       29.88S WCI  23
FAIRMONT       CLOUDY    30  27  88 E7        29.86F WCI  23
GLENCOE        CLOUDY    32  29  91 CALM      29.89S
OWATONNA       CLOUDY    30  27  86 CALM      29.87R
WASECA         CLOUDY    32  28  86 NE5       29.89R WCI  27
ALBERT LEA     CLOUDY    30  28  93 CALM      29.87S
$$
MNZ078>079-086>088-094>096-241600-
   Southeast Minnesota

CITY           SKY/WX    TMP DP  RH WIND       PRES   REMARKS
ROCHESTER      CLOUDY    29  27  92 E6        29.87S WCI  23
RED WING       CLOUDY    34  27  75 N3        29.89S
STANTON        CLOUDY    32  29  87 NE5       29.88S FOG     WCI  27
DODGE CENTER   CLOUDY    28  28 100 MISG      29.86S FOG
WINONA         CLOUDY    34  30  86 CALM      29.90F
AUSTIN         CLOUDY    30  27  86 NE5       29.86S WCI  25
PRESTON        CLOUDY    29  26  89 CALM      29.87S FOG
$$
ABBREVIATIONS USED IN REMARKS
   TC - TEMPERATURES IN CELSIUS
  WCI - WIND CHILL INDEX
   HX - HEAT INDEX
  VSB - VISIBILITY
$$




USA.gov is the U.S. government's official web portal to all federal, state and local government web resources and services.